Погода в Чалтыре

Россия / Ростовская область     47°16′57″N   39°29′56″E
темп.,
°C
ветер,
м/с
пор.,
м/с
влажн.,
%
обл.,
%
осадки,
мм/ч
давл.,
гПа
погр.,
м
13 июня, вс
вс1300:00+17ююз22915 0.0 101227
03:00+16ююз239499 0.0 101243
06:00+17ю249157 0.0 1011110
09:00+22юз346911 0.3 1011682
12:00+25зюз44538 0.1 10111558
15:00+25юз445336 0.1 10111497
18:00+24зюз346355 0.0 1011383
21:00+19зюз11745 0.0 101111
14 июня, пн
пн1400:00+18сз11764 0.0 101211
03:00+17зсз11790 0.0 101211
06:00+18св12777 0.0 101260
09:00+23всв225963 0.0 1012602
12:00+26в3351100 0.0 10121769
15:00+27в3347100 0.0 10121965
18:00+25св5763100 0.0 1011321
21:00+21всв487395 0.0 1011151
15 июня, вт
вт1500:00+20всв357466 0.0 1011105
03:00+18всв36895 0.0 1011119
06:00+19всв498713 0.0 1011297
09:00+23всв5669100 0.0 1010682
12:00+25вюв446098 0.2 10101418
15:00+27в2252100 0.3 10091710
18:00+26юв2363100 0.0 1009367
21:00+21ююз22800 0.3 100912
16 июня, ср
ср1600:00+19ссз11880 0.1 100911
03:00+19ссв22885 0.1 100914
06:00+19св238693 0.3 100961
09:00+24в246895 0.7 1009778
12:00+26в7959100 0.2 10071181
15:00+19з3598100 22.2 1009196
18:00+20юз239023 2.1 1010300
21:00+18зюз23920 2.3 101157
17 июня, чт
чт1700:00+16з22930 0.0 101119
03:00+15всв01940 0.0 101211
06:00+17ссв22920 0.0 101284
09:00+21с227432 0.0 1012582
12:00+24ссв3462100 0.3 1012952
15:00+20ссз1287100 3.8 1013188
18:00+19сз4792100 2.8 1012304
21:00+18сз239498 3.0 101367